DLH11X LFMN-EDDM

Flight info

Callsign DLH11X
Flight time 1h 6m
Altitude 32000
Route BASIP DCT ANAKI DCT TAGIP DCT GUNGO DCT IVKAL T102 NINUR T101 BETOS BETOS1A
Aircraft A319/M-SDE3FGHIRWY/LB1

Departure

Time 2026-05-01 10:08
Airport Nice-Côte d'Azur Airport (LFMN)

Arrival

Time 2026-05-01 11:14
Airport Munich Airport (EDDM)
Time Latitude Longitude Altitude Speed Heading
2026-05-01 08:50 43.66434 7.21406 21 ft 0 kts 351°
2026-05-01 08:50 43.66402 7.21180 22 ft 0 kts 351°
2026-05-01 09:48 43.66384 7.21185 23 ft 3 kts 341°
2026-05-01 09:48 43.66364 7.21197 22 ft 3 kts 324°
2026-05-01 09:48 43.66347 7.21217 21 ft 3 kts 304°
2026-05-01 09:49 43.66337 7.21244 21 ft 3 kts 283°
2026-05-01 09:49 43.66335 7.21274 21 ft 3 kts 263°
2026-05-01 09:49 43.66337 7.21300 21 ft 3 kts 269°
2026-05-01 09:49 43.66336 7.21331 21 ft 3 kts 279°
2026-05-01 09:50 43.66331 7.21362 23 ft 3 kts 283°
2026-05-01 09:50 43.66327 7.21392 22 ft 3 kts 264°
2026-05-01 09:50 43.66331 7.21410 21 ft 0 kts 225°
2026-05-01 09:55 43.66329 7.21407 21 ft 1 kts 225°
2026-05-01 09:56 43.66321 7.21396 21 ft 3 kts 227°
2026-05-01 09:56 43.66301 7.21365 21 ft 6 kts 227°
2026-05-01 09:56 43.66265 7.21314 21 ft 9 kts 224°
2026-05-01 09:56 43.66214 7.21245 21 ft 12 kts 225°
2026-05-01 09:57 43.66150 7.21158 21 ft 14 kts 225°
2026-05-01 09:57 43.66073 7.21053 21 ft 16 kts 226°
2026-05-01 09:57 43.65993 7.20943 21 ft 15 kts 224°
2026-05-01 09:57 43.65926 7.20852 21 ft 14 kts 224°
2026-05-01 09:58 43.65855 7.20764 22 ft 14 kts 225°
2026-05-01 09:58 43.65787 7.20669 21 ft 13 kts 224°
2026-05-01 09:58 43.65765 7.20640 21 ft 0 kts 225°
2026-05-01 09:58 43.65759 7.20631 21 ft 3 kts 225°
2026-05-01 09:59 43.65735 7.20599 21 ft 7 kts 224°
2026-05-01 09:59 43.65694 7.20543 21 ft 10 kts 225°
2026-05-01 09:59 43.65637 7.20465 21 ft 13 kts 225°
2026-05-01 09:59 43.65574 7.20377 21 ft 14 kts 225°
2026-05-01 10:00 43.65507 7.20284 22 ft 14 kts 225°
2026-05-01 10:00 43.65437 7.20192 21 ft 13 kts 218°
2026-05-01 10:00 43.65362 7.20188 23 ft 11 kts 154°
2026-05-01 10:00 43.65303 7.20257 21 ft 12 kts 136°
2026-05-01 10:01 43.65255 7.20322 21 ft 0 kts 134°
2026-05-01 10:01 43.65254 7.20323 21 ft 1 kts 134°
2026-05-01 10:01 43.65239 7.20344 20 ft 6 kts 134°
2026-05-01 10:02 43.65201 7.20397 21 ft 10 kts 135°
2026-05-01 10:02 43.65143 7.20477 21 ft 14 kts 136°
2026-05-01 10:02 43.65041 7.20506 21 ft 17 kts 195°
2026-05-01 10:02 43.64948 7.20404 22 ft 17 kts 225°
2026-05-01 10:03 43.64870 7.20295 21 ft 13 kts 225°
2026-05-01 10:03 43.64803 7.20206 22 ft 13 kts 223°
2026-05-01 10:03 43.64755 7.20179 22 ft 1 kts 172°
2026-05-01 10:04 43.64753 7.20180 22 ft 1 kts 172°
2026-05-01 10:04 43.64735 7.20188 22 ft 4 kts 160°
2026-05-01 10:04 43.64708 7.20222 23 ft 6 kts 120°
2026-05-01 10:04 43.64709 7.20294 25 ft 10 kts 65°
2026-05-01 10:05 43.64732 7.20331 24 ft 0 kts 45°
2026-05-01 10:06 43.64734 7.20333 23 ft 1 kts 45°
2026-05-01 10:07 43.64769 7.20381 23 ft 20 kts 44°
2026-05-01 10:07 43.65059 7.20780 23 ft 95 kts 45°
2026-05-01 10:07 43.65669 7.21624 23 ft 152 kts 45°
2026-05-01 10:07 43.66475 7.22748 407 ft 167 kts 50°
2026-05-01 10:08 43.67028 7.25684 1572 ft 176 kts 105°
2026-05-01 10:08 43.66384 7.27196 1978 ft 194 kts 130°
2026-05-01 10:08 43.65406 7.28660 2247 ft 224 kts 132°
2026-05-01 10:09 43.64288 7.30331 2838 ft 238 kts 127°
2026-05-01 10:09 43.63600 7.32284 4112 ft 222 kts 102°
2026-05-01 10:09 43.63599 7.34376 4819 ft 220 kts 76°
2026-05-01 10:09 43.64054 7.36373 4929 ft 215 kts 70°
2026-05-01 10:10 43.64572 7.38311 5070 ft 216 kts 69°
2026-05-01 10:10 43.65108 7.40262 5144 ft 219 kts 69°
2026-05-01 10:10 43.66182 7.44162 6815 ft 220 kts 67°
2026-05-01 10:11 43.66721 7.46170 7538 ft 226 kts 68°
2026-05-01 10:11 43.67261 7.48213 8321 ft 228 kts 68°
2026-05-01 10:11 43.67814 7.50304 8931 ft 241 kts 67°
2026-05-01 10:11 43.68428 7.52583 9297 ft 265 kts 68°
2026-05-01 10:12 43.69090 7.55042 9886 ft 279 kts 68°
2026-05-01 10:12 43.69772 7.57588 10568 ft 289 kts 68°
2026-05-01 10:12 43.71271 7.63220 11148 ft 333 kts 69°
2026-05-01 10:13 43.72067 7.66224 11767 ft 340 kts 69°
2026-05-01 10:13 43.72885 7.69309 12486 ft 345 kts 68°
2026-05-01 10:13 43.74015 7.72230 13229 ft 346 kts 52°
2026-05-01 10:14 43.77206 7.77276 14650 ft 352 kts 48°
2026-05-01 10:14 43.78840 7.79827 15293 ft 355 kts 49°
2026-05-01 10:14 43.80482 7.82400 15939 ft 358 kts 49°
2026-05-01 10:14 43.82137 7.85000 16622 ft 360 kts 49°
2026-05-01 10:15 43.83773 7.87581 17308 ft 362 kts 49°
2026-05-01 10:15 43.85434 7.90205 17999 ft 364 kts 49°
2026-05-01 10:15 43.87109 7.92850 18688 ft 366 kts 49°
2026-05-01 10:15 43.88780 7.95524 19248 ft 368 kts 52°
2026-05-01 10:16 43.90191 7.98509 19793 ft 372 kts 60°
2026-05-01 10:16 43.91467 8.01645 20341 ft 375 kts 59°
2026-05-01 10:16 43.94058 8.07997 21446 ft 381 kts 59°
2026-05-01 10:17 43.95367 8.11206 21972 ft 384 kts 59°
2026-05-01 10:17 43.97991 8.17651 22994 ft 389 kts 59°
2026-05-01 10:17 43.99329 8.20938 23488 ft 392 kts 59°
2026-05-01 10:18 44.02027 8.27582 24347 ft 398 kts 59°
2026-05-01 10:18 44.03389 8.30937 24732 ft 401 kts 59°
2026-05-01 10:18 44.04764 8.34330 25102 ft 404 kts 59°
2026-05-01 10:19 44.06142 8.37737 25561 ft 404 kts 59°
2026-05-01 10:19 44.07500 8.41103 25972 ft 406 kts 59°
2026-05-01 10:19 44.08884 8.44538 26364 ft 408 kts 59°
2026-05-01 10:20 44.11680 8.51482 27073 ft 414 kts 59°
2026-05-01 10:20 44.13093 8.54993 27425 ft 417 kts 59°
2026-05-01 10:20 44.14511 8.58528 27774 ft 420 kts 59°
2026-05-01 10:20 44.15937 8.62095 28116 ft 423 kts 59°
2026-05-01 10:21 44.17368 8.65684 28451 ft 425 kts 59°
2026-05-01 10:21 44.20604 8.72527 29116 ft 427 kts 46°
2026-05-01 10:21 44.22732 8.75396 29553 ft 425 kts 38°
2026-05-01 10:22 44.27411 8.80479 30233 ft 428 kts 37°
2026-05-01 10:22 44.32118 8.85642 30772 ft 431 kts 37°
2026-05-01 10:23 44.34475 8.88233 31138 ft 430 kts 37°
2026-05-01 10:23 44.39176 8.93403 31849 ft 430 kts 37°
2026-05-01 10:23 44.41488 8.95952 32198 ft 430 kts 37°
2026-05-01 10:24 44.46157 9.01095 32334 ft 424 kts 37°
2026-05-01 10:24 44.50783 9.06196 32341 ft 422 kts 37°
2026-05-01 10:25 44.59916 9.16306 32352 ft 417 kts 37°
2026-05-01 10:26 44.64461 9.21355 32371 ft 417 kts 37°
2026-05-01 10:27 44.73534 9.31453 32372 ft 415 kts 37°
2026-05-01 10:28 44.80279 9.38995 32373 ft 415 kts 37°
2026-05-01 10:28 44.87035 9.46577 32384 ft 414 kts 38°
2026-05-01 10:29 44.93768 9.54157 32381 ft 413 kts 37°
2026-05-01 10:30 45.02719 9.64237 32414 ft 410 kts 38°
2026-05-01 10:31 45.11581 9.74290 32403 ft 407 kts 38°
2026-05-01 10:32 45.18192 9.81814 32397 ft 406 kts 38°
2026-05-01 10:33 45.26944 9.91812 32393 ft 405 kts 38°
2026-05-01 10:34 45.33522 9.99346 32377 ft 405 kts 38°
2026-05-01 10:34 45.37905 10.04373 32369 ft 405 kts 38°
2026-05-01 10:35 45.44438 10.11894 32371 ft 405 kts 38°
2026-05-01 10:35 45.48812 10.16949 32404 ft 404 kts 38°
2026-05-01 10:36 45.55342 10.24512 32407 ft 402 kts 38°
2026-05-01 10:37 45.59678 10.29538 32401 ft 401 kts 38°
2026-05-01 10:37 45.66126 10.37050 32397 ft 400 kts 38°
2026-05-01 10:38 45.70435 10.42078 32373 ft 400 kts 38°
2026-05-01 10:38 45.74737 10.47114 32369 ft 399 kts 38°
2026-05-01 10:39 45.79041 10.52158 32363 ft 400 kts 38°
2026-05-01 10:39 45.83314 10.57161 32360 ft 399 kts 38°
2026-05-01 10:40 45.87610 10.62209 32344 ft 399 kts 38°
2026-05-01 10:40 45.91910 10.67277 32334 ft 399 kts 38°
2026-05-01 10:41 45.96598 10.71494 32341 ft 400 kts 28°
2026-05-01 10:42 46.03940 10.77111 32381 ft 400 kts 28°
2026-05-01 10:42 46.08832 10.80875 32379 ft 398 kts 28°
2026-05-01 10:43 46.13713 10.84642 32374 ft 398 kts 28°
2026-05-01 10:43 46.18582 10.88402 32375 ft 397 kts 28°
2026-05-01 10:44 46.23443 10.92176 32375 ft 397 kts 28°
2026-05-01 10:44 46.28270 10.95923 32374 ft 396 kts 28°
2026-05-01 10:45 46.33127 10.99700 32374 ft 396 kts 28°
2026-05-01 10:45 46.37981 11.03486 32373 ft 396 kts 28°
2026-05-01 10:46 46.43197 11.05974 32333 ft 399 kts 10°
2026-05-01 10:46 46.48779 11.05956 32318 ft 407 kts
2026-05-01 10:47 46.54447 11.05546 32323 ft 408 kts
2026-05-01 10:47 46.60125 11.05145 32321 ft 409 kts
2026-05-01 10:48 46.65806 11.04732 32321 ft 409 kts
2026-05-01 10:48 46.71498 11.04314 32323 ft 409 kts
2026-05-01 10:49 46.77144 11.03897 32301 ft 410 kts
2026-05-01 10:49 46.82846 11.03288 32311 ft 412 kts 356°
2026-05-01 10:50 46.88538 11.02164 32315 ft 414 kts 354°
2026-05-01 10:50 46.94242 11.01061 32317 ft 412 kts
2026-05-01 10:51 46.99897 11.01650 31665 ft 412 kts
2026-05-01 10:51 47.02767 11.02098 30759 ft 415 kts
2026-05-01 10:51 47.05619 11.02542 30177 ft 410 kts
2026-05-01 10:51 47.08440 11.02974 29552 ft 403 kts
2026-05-01 10:52 47.11176 11.03387 29404 ft 388 kts
2026-05-01 10:52 47.13814 11.03782 29250 ft 376 kts
2026-05-01 10:52 47.16390 11.04170 28867 ft 368 kts
2026-05-01 10:52 47.18895 11.04547 28379 ft 365 kts
2026-05-01 10:53 47.21411 11.04931 27922 ft 362 kts
2026-05-01 10:53 47.23906 11.05314 27456 ft 360 kts
2026-05-01 10:53 47.26400 11.05699 26998 ft 359 kts
2026-05-01 10:53 47.28876 11.06080 26574 ft 357 kts
2026-05-01 10:54 47.31338 11.06458 26132 ft 355 kts
2026-05-01 10:54 47.33786 11.06833 25652 ft 352 kts
2026-05-01 10:54 47.36214 11.07207 25142 ft 350 kts
2026-05-01 10:54 47.38602 11.07574 24699 ft 348 kts
2026-05-01 10:55 47.41009 11.07942 24243 ft 347 kts
2026-05-01 10:55 47.43407 11.08307 23796 ft 346 kts
2026-05-01 10:55 47.45797 11.08673 23298 ft 344 kts
2026-05-01 10:55 47.48171 11.09040 22822 ft 342 kts
2026-05-01 10:56 47.50530 11.09403 22353 ft 340 kts
2026-05-01 10:56 47.52879 11.09764 21904 ft 338 kts
2026-05-01 10:56 47.55200 11.10245 21453 ft 335 kts 15°
2026-05-01 10:56 47.57403 11.11260 21043 ft 330 kts 24°
2026-05-01 10:57 47.59416 11.12762 20600 ft 327 kts 32°
2026-05-01 10:57 47.61368 11.14479 20178 ft 326 kts 32°
2026-05-01 10:57 47.63322 11.16173 19779 ft 324 kts 32°
2026-05-01 10:57 47.65265 11.17849 19372 ft 322 kts 32°
2026-05-01 10:58 47.67198 11.19516 18975 ft 320 kts 32°
2026-05-01 10:58 47.69123 11.21176 18589 ft 319 kts 32°
2026-05-01 10:58 47.71036 11.22831 18134 ft 318 kts 32°
2026-05-01 10:58 47.72940 11.24474 17707 ft 316 kts 31°
2026-05-01 10:59 47.74920 11.25793 17295 ft 317 kts 22°
2026-05-01 10:59 47.76980 11.26923 16901 ft 315 kts 22°
2026-05-01 10:59 47.79029 11.28058 16512 ft 313 kts 22°
2026-05-01 10:59 47.81069 11.29195 16134 ft 312 kts 22°
2026-05-01 11:00 47.83094 11.30324 15778 ft 310 kts 22°
2026-05-01 11:00 47.85114 11.31448 15408 ft 309 kts 22°
2026-05-01 11:00 47.87117 11.32562 15068 ft 304 kts 22°
2026-05-01 11:00 47.89136 11.33368 14779 ft 298 kts 12°
2026-05-01 11:01 47.91192 11.33650 14368 ft 297 kts
2026-05-01 11:01 47.93246 11.33810 13915 ft 295 kts
2026-05-01 11:01 47.95259 11.33980 13445 ft 292 kts
2026-05-01 11:01 47.97281 11.34159 12930 ft 291 kts
2026-05-01 11:02 47.99299 11.34339 12432 ft 290 kts
2026-05-01 11:02 48.01306 11.34518 11996 ft 288 kts
2026-05-01 11:02 48.03299 11.34692 11528 ft 286 kts
2026-05-01 11:02 48.05244 11.35187 11026 ft 281 kts 22°
2026-05-01 11:03 48.06979 11.36453 10565 ft 276 kts 37°
2026-05-01 11:03 48.08377 11.38349 10273 ft 269 kts 53°
2026-05-01 11:03 48.09477 11.40595 10197 ft 273 kts 56°
2026-05-01 11:03 48.10593 11.42910 10119 ft 274 kts 56°
2026-05-01 11:04 48.11597 11.45306 10055 ft 272 kts 66°
2026-05-01 11:04 48.12168 11.47991 9985 ft 271 kts 81°
2026-05-01 11:04 48.12392 11.50799 9922 ft 271 kts 84°
2026-05-01 11:04 48.12609 11.53591 9851 ft 269 kts 83°
2026-05-01 11:05 48.12833 11.56377 9790 ft 270 kts 83°
2026-05-01 11:05 48.13059 11.59171 9729 ft 271 kts 83°
2026-05-01 11:05 48.13296 11.61958 9656 ft 270 kts 80°
2026-05-01 11:05 48.14037 11.64499 9587 ft 270 kts 53°
2026-05-01 11:06 48.15509 11.66227 9506 ft 270 kts 26°
2026-05-01 11:06 48.17344 11.66737 9254 ft 272 kts
2026-05-01 11:06 48.19206 11.66422 9002 ft 273 kts 355°
2026-05-01 11:07 48.22803 11.64762 8487 ft 279 kts 322°
2026-05-01 11:07 48.23995 11.62469 8232 ft 281 kts 298°
2026-05-01 11:07 48.24836 11.59817 7982 ft 281 kts 295°
2026-05-01 11:07 48.25636 11.57143 7730 ft 281 kts 295°
2026-05-01 11:08 48.26432 11.54458 7391 ft 284 kts 294°
2026-05-01 11:08 48.27241 11.51731 6932 ft 288 kts 294°
2026-05-01 11:08 48.29144 11.46528 5949 ft 282 kts 319°
2026-05-01 11:09 48.30792 11.45085 5470 ft 270 kts 348°
2026-05-01 11:09 48.32596 11.44999 5066 ft 252 kts 21°
2026-05-01 11:09 48.34010 11.46193 4906 ft 222 kts 52°
2026-05-01 11:10 48.34381 11.50145 4452 ft 197 kts 117°
2026-05-01 11:10 48.33797 11.51971 4252 ft 190 kts 112°
2026-05-01 11:10 48.33289 11.53743 4072 ft 181 kts 111°
2026-05-01 11:10 48.32882 11.55496 3994 ft 175 kts 100°
2026-05-01 11:11 48.32793 11.57292 3851 ft 173 kts 90°
2026-05-01 11:11 48.32853 11.59096 3634 ft 173 kts 86°
2026-05-01 11:11 48.32967 11.60896 3415 ft 170 kts 85°
2026-05-01 11:11 48.33094 11.62612 3199 ft 159 kts 85°
2026-05-01 11:12 48.33215 11.64187 2988 ft 146 kts 84°
2026-05-01 11:12 48.33329 11.65656 2797 ft 141 kts 85°
2026-05-01 11:12 48.33443 11.67121 2598 ft 138 kts 84°
2026-05-01 11:12 48.33551 11.68557 2374 ft 141 kts 83°
2026-05-01 11:13 48.33660 11.70011 2209 ft 135 kts 81°
2026-05-01 11:13 48.33776 11.71369 2000 ft 133 kts 84°
2026-05-01 11:13 48.33885 11.72732 1853 ft 134 kts 85°
2026-05-01 11:13 48.33994 11.74148 1685 ft 137 kts 82°
2026-05-01 11:14 48.34105 11.75555 1499 ft 132 kts 83°
2026-05-01 11:14 48.34201 11.76794 1479 ft 103 kts 84°
2026-05-01 11:14 48.34251 11.77478 1478 ft 39 kts 83°
2026-05-01 11:14 48.34280 11.77852 1478 ft 34 kts 83°
2026-05-01 11:15 48.34309 11.78197 1479 ft 32 kts 83°
2026-05-01 11:15 48.34333 11.78536 1485 ft 33 kts 83°
2026-05-01 11:15 48.34359 11.78868 1485 ft 32 kts 83°
2026-05-01 11:15 48.34433 11.79154 1473 ft 28 kts 56°
2026-05-01 11:16 48.34544 11.79378 1481 ft 26 kts 53°
2026-05-01 11:16 48.34611 11.79514 1479 ft 10 kts 53°
2026-05-01 11:16 48.34654 11.79601 1481 ft 10 kts 54°
2026-05-01 11:16 48.34698 11.79693 1485 ft 11 kts 51°
2026-05-01 11:17 48.34756 11.79712 1485 ft 9 kts 349°
2026-05-01 11:17 48.34821 11.79700 1485 ft 10 kts 354°
2026-05-01 11:17 48.34887 11.79689 1477 ft 9 kts 353°
2026-05-01 11:17 48.34923 11.79682 1485 ft 0 kts 352°
2026-05-01 11:19 48.34925 11.79682 1485 ft 1 kts 352°
2026-05-01 11:19 48.34938 11.79679 1475 ft 4 kts 352°
2026-05-01 11:20 48.34977 11.79655 1482 ft 8 kts 321°
2026-05-01 11:20 48.35017 11.79601 1481 ft 9 kts 328°
2026-05-01 11:20 48.35080 11.79585 1485 ft 11 kts 354°
2026-05-01 11:20 48.35166 11.79572 1480 ft 13 kts 354°
2026-05-01 11:21 48.35252 11.79557 1479 ft 13 kts 354°
2026-05-01 11:21 48.35338 11.79542 1483 ft 11 kts 352°
2026-05-01 11:21 48.35413 11.79525 1474 ft 11 kts 351°
2026-05-01 11:21 48.35486 11.79515 1483 ft 11 kts 356°
2026-05-01 11:22 48.35540 11.79510 1479 ft 7 kts
2026-05-01 11:22 48.35571 11.79560 1482 ft 7 kts 80°
2026-05-01 11:22 48.35574 11.79611 1475 ft 7 kts 84°
2026-05-01 11:22 48.35580 11.79690 1485 ft 7 kts 83°
2026-05-01 11:23 48.35582 11.79717 1485 ft 0 kts 83°